STARLETTE 1 07646U 75010A 25299.51348010 -.00000123 00000+0 16824-4 0 9996 2 07646 49.8243 306.9515 0205684 11.0773 349.4551 13.82345827562218 LAGEOS 1 1 08820U 76039A 25299.20832669 .00000025 00000+0 00000+0 0 9991 2 08820 109.8406 99.2073 0044669 352.3648 193.4370 6.38664886898195 AJISAI (EGS) 1 16908U 86061A 25299.51418872 -.00000089 00000+0 56708-4 0 9995 2 16908 50.0067 145.9346 0011140 306.4177 85.6351 12.44514052451298 COSMOS 1989 (ETALON 1) 1 19751U 89001C 25299.54316759 .00000031 00000+0 00000+0 0 9990 2 19751 64.8104 80.1942 0023447 216.8957 99.2095 2.13156101286381 COSMOS 2024 (ETALON 2) 1 20026U 89039C 25299.46451002 -.00000022 00000+0 00000+0 0 9991 2 20026 65.0775 318.5831 0020415 214.4524 158.4737 2.13204615283524 LAGEOS 2 1 22195U 92070B 25298.69198359 -.00000009 00000+0 00000+0 0 9991 2 22195 52.6671 54.8264 0137806 84.9477 308.1449 6.47293580780245 STELLA 1 22824U 93061B 25299.50865741 -.00000035 00000+0 42751-5 0 9992 2 22824 98.8078 357.5189 0006161 187.3626 283.3910 14.27461348671432 LARETS 1 27944U 03042F 25299.48180889 .00000128 00000+0 34185-4 0 9993 2 27944 98.3871 92.1872 0013210 49.4843 310.7507 14.63801911179174 LARES 1 38077U 12006A 25299.52480914 -.00000033 00000+0 33124-4 0 9997 2 38077 69.4908 331.3653 0011441 264.1514 95.8209 12.54931911627757 LARES-2 1 53105U 22080A 25298.39260325 -.00000022 00000+0 00000+0 0 9995 2 53105 70.1712 25.8333 0004098 38.9683 321.1310 6.38964991 76667